Location: ?????
(32.7281°N, 34.9563°E)
Time: 18:13:30
(UTC+00:00)

CZ-4B R/B - Pass Details

Date: 08 March 2021
Orbit: 388 x 454 km, 97.6° (Epoch: 18 April)

Event Time Altitude Azimuth Distance (km) Brightness Sun altitude
Rises 02:09:24 0° 124° (SE) 2,326 5.7 -23.9°
Reaches altitude 10° 02:12:49 10° 83° (E) 1,453 5.1 -23.2°
Maximum altitude 02:13:30 11° 70° (ENE) 1,418 5.0 -23.1°
Drops below altitude 10° 02:14:11 10° 57° (ENE) 1,449 4.9 -22.9°
Sets 02:17:33 0° 16° (NNE) 2,299 5.3 -22.2°
